STARLINK-32584 (62179 NORAD) Tracking and Keplerian Element Data

This shows tracking and keplerian element data for the satellite.

Feedback or suggestion? Click here.




ElementValue
Catalog62179
NameSTARLINK-32584
Epoch Orbit1018
Epoch Day35.1868295
Epoch Year2025
RAAN89.1405
Inclination69.9991
Eccentricity0.0003366
Argument of Perigee262.7375
Mean Anonmoly97.3401
Mean Motion14.98530676
Decay Rate-0.00079543
L11 62179U 24225S 25035.18682950 -.00079543 00000+0 -66993-2 0 9998
L22 62179 69.9991 89.1405 0003366 262.7375 97.3401 14.98530676 10180



Live tracking and technical data element details for STARLINK-32584 (NORAD 62179). STARLINK-32584 can be tracked NOW for your location showing map with azimuth and elevation plus other details from your city location.







IsCatalogInMostPopularTable: catalog: 62179, numindb: 10
Update: records affected: 1



GetName: 62179 STARLINK-32584

Hit Count: updated at: Sun, 18 May 2025 22:49:29 GMT